Location: Castelnau
(43.6639°N, 0.8431°W)
Time: 16:46:37
(UTC+00:00)

CBERS-1 - Pass Details

Date: 13 January 2026
Orbit: 765 x 772 km, 98.9° (Epoch: 11 February)

Event Time Altitude Azimuth Distance (km) Brightness Sun altitude
Rises 06:28:10 0° 11° (N) 3,242 7.2 -11.8°
Reaches altitude 10° 06:30:29 10° 9° (N) 2,312 6.4 -11.4°
Maximum altitude 06:35:31 66° 288° (WNW) 835 4.0 -10.6°
Drops below altitude 10° 06:40:32 10° 207° (SSW) 2,298 6.4 -9.7°
Sets 06:42:51 0° 204° (SSW) 3,220 7.2 -9.3°
